TimeEST,TemperatureF,Dew PointF,Humidity,Sea Level PressureIn,VisibilityMPH,Wind Direction,Wind SpeedMPH,Gust SpeedMPH,PrecipitationIn,Events,Conditions,WindDirDegrees,DateUTC
12:10 AM,32.0,30.2,93,29.63,2.5,SW,6.9,-,0.00,Snow,Light Snow,230,2013-01-10 05:10:00
12:37 AM,33.8,30.2,87,29.63,3.0,WSW,5.8,-,0.01,Snow,Light Snow,240,2013-01-10 05:37:00
12:50 AM,33.8,30.2,87,29.63,4.0,WSW,8.1,-,0.01,Snow,Light Snow,240,2013-01-10 05:50:00
12:54 AM,33.1,30.9,92,29.67,4.0,WSW,6.9,-,0.01,Snow,Light Snow,240,2013-01-10 05:54:00
1:10 AM,33.8,30.2,87,29.64,2.5,WSW,6.9,-,0.00,Snow,Light Snow,250,2013-01-10 06:10:00
1:45 AM,33.8,30.2,87,29.65,5.0,West,5.8,-,0.00,Snow,Light Snow,260,2013-01-10 06:45:00
1:54 AM,33.1,30.9,92,29.69,6.0,West,5.8,-,0.00,Snow,Light Snow,260,2013-01-10 06:54:00
2:54 AM,33.1,30.0,89,29.70,10.0,WNW,8.1,-,0.00,,Overcast,290,2013-01-10 07:54:00
3:54 AM,33.1,28.9,85,29.74,10.0,WNW,12.7,-,N/A,,Mostly Cloudy,290,2013-01-10 08:54:00
4:42 AM,33.8,30.2,87,29.75,5.0,WNW,12.7,-,0.00,Snow,Light Snow,300,2013-01-10 09:42:00
4:54 AM,33.1,30.0,89,29.79,4.0,WNW,15.0,21.9,0.00,Snow,Light Snow,300,2013-01-10 09:54:00
5:05 AM,33.8,30.2,87,29.76,4.0,WNW,13.8,20.7,0.00,Snow,Light Snow,300,2013-01-10 10:05:00
5:12 AM,33.8,30.2,87,29.77,4.0,WNW,10.4,20.7,0.00,Snow,Light Snow,300,2013-01-10 10:12:00
5:54 AM,34.0,30.0,85,29.84,10.0,WNW,11.5,19.6,0.00,,Overcast,300,2013-01-10 10:54:00
6:34 AM,33.8,28.4,81,29.84,10.0,NW,11.5,20.7,0.23,,Overcast,310,2013-01-10 11:34:00
6:54 AM,34.0,28.9,82,29.89,10.0,NW,11.5,-,0.23,,Overcast,310,2013-01-10 11:54:00
7:38 AM,33.8,28.4,81,29.88,10.0,WNW,11.5,17.3,N/A,,Overcast,300,2013-01-10 12:38:00
7:54 AM,34.0,28.0,79,29.93,10.0,WNW,11.5,-,N/A,,Overcast,300,2013-01-10 12:54:00
8:54 AM,34.0,28.0,79,29.97,10.0,WNW,11.5,18.4,N/A,,Overcast,300,2013-01-10 13:54:00
9:54 AM,35.1,28.0,76,30.01,10.0,WNW,11.5,20.7,N/A,,Mostly Cloudy,300,2013-01-10 14:54:00
10:54 AM,35.1,26.1,70,30.03,10.0,NW,17.3,26.5,0.23,,Overcast,320,2013-01-10 15:54:00
11:54 AM,34.0,23.0,64,30.06,10.0,NW,17.3,27.6,0.00,,Overcast,310,2013-01-10 16:54:00
12:01 PM,33.8,23.0,65,30.03,10.0,NW,19.6,28.8,N/A,,Overcast,310,2013-01-10 17:01:00
12:54 PM,32.0,21.0,64,30.10,10.0,NW,21.9,31.1,N/A,,Overcast,320,2013-01-10 17:54:00
1:54 PM,32.0,21.0,64,30.15,10.0,NW,17.3,29.9,N/A,,Overcast,310,2013-01-10 18:54:00
2:54 PM,30.9,19.9,64,30.19,10.0,NW,10.4,24.2,N/A,,Overcast,320,2013-01-10 19:54:00
3:54 PM,30.0,19.0,64,30.24,10.0,WNW,12.7,18.4,N/A,,Overcast,300,2013-01-10 20:54:00
4:54 PM,28.0,17.1,63,30.27,10.0,WNW,17.3,-,N/A,,Mostly Cloudy,300,2013-01-10 21:54:00
5:54 PM,27.0,16.0,63,30.32,10.0,WNW,13.8,19.6,N/A,,Mostly Cloudy,300,2013-01-10 22:54:00
6:54 PM,26.1,16.0,66,30.39,10.0,NW,11.5,21.9,N/A,,Scattered Clouds,310,2013-01-10 23:54:00
7:54 PM,25.0,15.1,66,30.43,10.0,NW,13.8,21.9,N/A,,Clear,310,2013-01-11 00:54:00
8:54 PM,24.1,14.0,65,30.43,10.0,NW,10.4,18.4,N/A,,Clear,320,2013-01-11 01:54:00
9:54 PM,23.0,14.0,68,30.44,10.0,NNW,16.1,-,N/A,,Clear,330,2013-01-11 02:54:00
10:54 PM,21.0,12.9,71,30.44,10.0,NW,13.8,-,N/A,,Clear,320,2013-01-11 03:54:00
11:54 PM,19.9,12.9,74,30.43,10.0,North,10.4,-,N/A,,Clear,350,2013-01-11 04:54:00